Home   Weather   Schwerin   Past weeks

Flag for Germany Past Weather in Schwerin, Mecklenburg-Western Pomerania, Germany — Yesterday and Last 2 Weeks

Now
37 °F

Passing clouds.


Feels Like: 31 °F
Forecast: 30 / 36 °F
Wind: 8 mph from West

Location: Laage

Current Time: Dec 6, 2016 at 2:03:21 am

Latest Report: Dec 6, 2016 at 1:20 am


Visibility: N/A

Pressure: 30.24 "Hg

Humidity: 87%

Dew Point: 34 °F

Location of SchwerinLocation

Past Weather in Schwerin — Graph

°F

Schwerin Temperature Yesterday

Maximum temperature yesterday: 37 °F (at 11:20 pm)
Minimum temperature yesterday: 30 °F (at 6:20 am)
Average temperature yesterday: 34 °F

High & Low Weather Summary for the Past Weeks

 TemperatureHumidityPressure
High57 °F (Nov 21, 2:20 pm)100% (Nov 23, 1:20 am)30.60 "Hg (Nov 23, 1:20 am)
Low23 °F (Dec 3, 8:20 am)52% (Nov 28, 11:52 am)29.62 "Hg (Nov 21, 12:20 am)
Average39 °F85%30.13 "Hg
* Reported Nov 21 12:20 am — Dec 6 12:20 am, Schwerin, Weather by CustomWeather, © 2016

Note: Actual official high and low records may vary slightly from our data, if they occured in-between our weather recording intervals... More about our weather records

Advertising

Schwerin Weather History for the Previous 24 Hours

Scroll right to see more
 ConditionsComfort  
Time TempWeatherWind HumidityBarometerVisibility
12:20 am
Tue, Dec 6
37 °FPassing clouds.9 mph87%30.24 "HgN/A
11:20 pm
Mon, Dec 5
37 °FPassing clouds.9 mph87%30.24 "HgN/A
10:20 pm36 °FPartly cloudy.8 mph93%30.24 "HgN/A
9:20 pm36 °FPartly cloudy.8 mph87%30.24 "HgN/A
8:20 pm36 °FPassing clouds.6 mph87%30.24 "HgN/A
7:20 pm36 °FPassing clouds.7 mph81%30.24 "HgN/A
6:20 pm34 °FPassing clouds.7 mph87%30.24 "HgN/A
5:20 pm34 °FPassing clouds.7 mph87%30.24 "Hg6 mi
4:20 pm34 °FPassing clouds.6 mph87%30.24 "Hg6 mi
3:20 pm36 °FPartly sunny.5 mph81%30.27 "HgN/A
2:20 pm36 °FPartly sunny.6 mph81%30.27 "HgN/A
1:20 pm36 °FPartly sunny.6 mph81%30.27 "HgN/A
12:20 pm36 °FPartly sunny.6 mph75%30.27 "Hg5 mi
11:20 am32 °FPassing clouds.6 mph87%30.30 "Hg4 mi
10:20 am32 °FPassing clouds.7 mph87%30.30 "Hg4 mi
9:20 am30 °FPassing clouds.7 mph86%30.30 "Hg4 mi
8:20 am30 °FScattered clouds.5 mph86%30.33 "Hg4 mi
7:20 am30 °FPassing clouds.7 mph93%30.33 "Hg5 mi
6:20 am30 °FPassing clouds.8 mph93%30.33 "HgN/A
5:20 am32 °FPassing clouds.8 mph93%30.33 "HgN/A
4:20 am34 °FPassing clouds.6 mph87%30.36 "HgN/A
3:20 am34 °FPassing clouds.7 mph93%30.36 "HgN/A
2:20 am36 °FPassing clouds.7 mph87%30.36 "HgN/A
Weather by CustomWeather, © 2016

See weather overviewHow to use our weather pages